DW9125 Weather Reports


time (UTC)temp
F
wind
direction
speed
knots
gust
knots
rain 1hr
in
rain 24hr
in
rain mn
in
humidity
%
barometer
mb
20260506231554 46 360 0.0 0.0 0.00 0.00 0.00 89 1007.2
20260506224554 46 360 0.0 0.0 0.00 0.00 0.00 89 1007.3
20260506223053 46 360 0.0 0.0 0.00 0.00 0.00 90 1007.3
20260506221601 46 360 0.0 0.0 0.00 0.00 0.00 90 1007.3
20260506220052 46 360 0.0 0.0 0.00 0.00 0.00 91 1007.2
20260506214553 46 360 0.0 0.0 0.00 0.00 0.00 92 1007.3
20260506213056 46 360 0.0 0.0 0.00 0.00 0.00 92 1007.2
20260506211554 46 360 0.0 0.0 0.00 0.00 0.00 93 1007.1
20260506210050 45 360 0.0 0.0 0.00 0.00 0.00 92 1007.3
20260506204550 45 360 0.0 0.0 0.00 0.00 0.00 92 1007.3
20260506203049 45 360 0.0 0.0 0.00 0.00 0.00 92 1007.3
20260506201550 45 360 0.0 0.0 0.00 0.00 0.00 92 1007.3
20260506200048 45 360 0.0 0.0 0.00 0.00 0.00 92 1007.3
20260506194548 45 360 0.0 0.0 0.00 0.00 0.00 92 1007.2
20260506193052 45 360 0.0 0.0 0.00 0.00 0.00 93 1007.3
20260506191546 45 360 0.0 0.0 0.00 0.00 0.00 93 1007.2
20260506190046 45 360 0.0 0.0 0.00 0.00 0.00 93 1007.3
20260506184544 45 360 0.0 0.0 0.00 0.00 0.00 93 1007.4
20260506183043 45 360 0.0 0.0 0.00 0.00 0.00 94 1007.5
20260506181556 45 360 0.0 0.0 0.00 0.00 0.00 94 1007.7
20260506180041 44 360 0.0 0.0 0.00 0.00 0.00 94 1007.9
20260506174540 44 360 0.0 0.0 0.00 0.00 0.00 93 1008.0
20260506173104 44 360 0.0 0.0 0.00 0.00 0.00 94 1008.1
20260506171543 44 360 0.0 0.0 0.00 0.00 0.00 94 1008.3
20260506170051 44 360 0.0 0.0 0.00 0.00 0.00 94 1008.1
20260506164539 44 360 0.0 0.0 0.00 0.00 0.00 93 1008.5
20260506163048 44 360 0.0 0.0 0.00 0.00 0.00 94 1008.4
20260506161535 44 360 0.0 0.0 0.00 0.00 0.00 94 1008.5
20260506160039 44 360 0.0 0.0 0.00 0.00 0.00 93 1008.7
20260506154538 44 360 0.0 0.0 0.00 0.00 0.00 94 1008.8
20260506153033 44 360 0.0 0.0 0.00 0.00 0.00 94 1009.1
20260506151533 43 360 0.0 0.0 0.00 0.00 0.00 93 1009.0
20260506150033 43 360 0.0 0.0 0.00 0.00 0.00 93 1008.9
20260506144539 43 360 0.0 0.0 0.00 0.00 0.00 93 1008.8
20260506143031 43 360 0.0 0.0 0.00 0.00 0.00 93 1009.0
20260506141530 43 360 0.0 0.0 0.00 0.00 0.00 93 1008.9
20260506140033 43 360 0.0 0.0 0.00 0.00 0.00 93 1009.1
20260506134527 43 360 0.0 0.0 0.00 0.00 0.00 93 1009.0
20260506133030 43 360 0.0 0.0 0.00 0.00 0.00 93 1008.7
20260506131525 43 360 0.0 0.0 0.00 0.00 0.00 93 1008.9
20260506130025 43 360 0.0 0.0 0.00 0.00 0.00 92 1008.9
20260506124524 43 360 0.0 0.0 0.00 0.00 0.00 92 1009.0
20260506123023 44 360 0.0 0.0 0.00 0.00 0.00 92 1009.2
20260506121521 44 360 0.0 0.0 0.00 0.00 0.00 92 1009.2
20260506120020 44 360 0.0 0.9 0.00 0.00 0.00 91 1009.9
20260506114516 44 360 0.0 0.9 0.00 0.00 0.00 91 1009.3
20260506113014 45 360 0.0 0.9 0.00 0.00 0.00 91 1009.1
20260506111512 45 360 0.0 0.0 0.00 0.00 0.00 92 1009.2
20260506110012 45 360 0.0 0.0 0.00 0.00 0.00 91 1009.1
20260506104525 45 360 0.0 0.0 0.00 0.00 0.00 91 1008.9
20260506103008 45 360 0.0 0.0 0.00 0.00 0.00 91 1008.2
20260506101508 45 360 0.0 0.0 0.00 0.00 0.00 92 1008.4
20260506100006 45 360 0.0 0.0 0.00 0.00 0.00 92 1008.8
20260506094506 46 360 0.0 0.0 0.00 0.00 0.00 92 1008.7
20260506093004 46 360 0.0 0.0 0.00 0.00 0.00 92 1008.7
20260506091504 46 360 0.0 0.0 0.00 0.00 0.00 92 1008.6
20260506090002 46 360 0.0 0.0 0.00 0.00 0.00 93 1008.7
20260506084501 46 360 0.0 0.0 0.00 0.00 0.00 92 1008.8
20260506083101 46 360 0.0 0.0 0.00 0.00 0.00 93 1008.7
20260506083001 46 360 0.0 0.0 0.00 0.00 0.00 93 1008.8
20260506081602 46 360 0.0 0.0 0.00 0.00 0.00 93 1008.9
20260506080111 46 360 0.0 0.0 0.00 0.00 0.00 93 1008.4
20260506073054 48 360 0.0 0.0 0.00 0.00 0.00 93 1008.6
20260506071608 48 360 0.0 0.0 0.00 0.00 0.00 93 1008.8
20260506061548 48 360 0.0 0.0 0.00 0.00 0.00 92 1008.2
20260506044541 48 360 0.0 0.0 0.00 0.00 0.00 90 1008.4
20260506043048 49 360 0.0 0.9 0.00 0.00 0.00 88 1008.0
20260506041538 49 360 0.0 0.9 0.00 0.00 0.00 86 1008.1
20260506040044 51 360 0.0 0.9 0.00 0.00 0.00 83 1007.7
20260506034528 53 360 0.0 0.9 0.00 0.00 0.00 80 1007.1
20260506033027 54 360 0.0 0.9 0.00 0.00 0.00 76 1007.1
20260506031524 55 360 0.0 0.9 0.00 0.00 0.00 77 1006.9
20260506030023 55 360 0.0 0.9 0.00 0.00 0.00 77 1007.0
20260506024530 56 360 0.0 0.9 0.00 0.00 0.00 75 1006.8
20260506023019 57 360 0.0 0.9 0.00 0.00 0.00 73 1006.3
20260506021538 59 360 0.0 0.9 0.00 0.00 0.00 67 1006.3
20260506020017 60 360 0.0 0.9 0.00 0.00 0.00 63 1006.1
20260506014522 61 360 0.0 1.7 0.00 0.00 0.00 60 1005.9
20260506013012 61 360 0.0 0.9 0.00 0.00 0.00 59 1005.5
20260506011520 62 360 0.0 0.9 0.00 0.00 0.00 58 1005.1
20260506010012 62 360 0.0 0.9 0.00 0.00 0.00 59 1004.7
20260506004505 63 360 0.0 0.9 0.00 0.00 0.00 61 1004.3
20260506003003 63 360 0.0 0.9 0.00 0.00 0.00 69 1004.2
20260506001625 63 360 0.0 0.9 0.00 0.00 0.00 71 1003.8
20260506000110 64 360 0.0 0.9 0.00 0.00 0.00 73 1003.4
20260505234612 64 360 0.0 0.9 0.00 0.00 0.00 73 1003.2
20260505233054 64 360 0.0 0.9 0.00 0.00 0.00 74 1002.6